When you browse on this site, cookies collect data to enhance your experience and personalize the content and advertising you see.
Visit our Privacy Policy to learn more. By continuing to use the site, you agree to this use of cookies and data.
  • In Hungary
  • List of Countries
  • For 7 days
  • Water Temperature
  • Satellite Maps
  • Weather Map
  • News
  • Weather Widgets
  • user-avatar
    Login

    Hourly Weather Granada

    Today, 18 January, Friday

    Time Temperature Precipitation Wind Pressure Humidity
    00:00 +26°C° 0 mm 6 mps 756 mmHg 77%
    01:00 +26°C° 0 mm 6 mps 756 mmHg 78%
    02:00 +26°C° 0 mm 6 mps 755 mmHg 78%
    03:00 +26°C° 0 mm 6 mps 755 mmHg 79%
    04:00 +26°C° 0 mm 5 mps 755 mmHg 79%
    05:00 +25°C° 0 mm 5 mps 755 mmHg 79%
    06:00 +25°C° 0 mm 5 mps 756 mmHg 79%
    07:00 +27°C° 0 mm 6 mps 756 mmHg 72%
    08:00 +28°C° 0 mm 6 mps 756 mmHg 65%
    09:00 +30°C° 0 mm 7 mps 756 mmHg 59%
    10:00 +32°C° 0 mm 7 mps 756 mmHg 54%
    11:00 +33°C° 0 mm 7 mps 755 mmHg 50%
    12:00 +34°C° 0 mm 7 mps 755 mmHg 46%
    13:00 +35°C° 0 mm 7 mps 754 mmHg 45%
    14:00 +35°C° 0 mm 7 mps 753 mmHg 45%
    15:00 +35°C° 0 mm 7 mps 753 mmHg 45%
    16:00 +34°C° 0 mm 6 mps 753 mmHg 50%
    17:00 +32°C° 0 mm 6 mps 753 mmHg 55%
    18:00 +30°C° 0 mm 5 mps 753 mmHg 61%
    19:00 +29°C° 0 mm 6 mps 754 mmHg 65%
    20:00 +28°C° 0 mm 6 mps 754 mmHg 69%
    21:00 +28°C° 0 mm 6 mps 755 mmHg 73%
    22:00 +27°C° 0 mm 6 mps 755 mmHg 74%
    23:00 +27°C° 0 mm 6 mps 755 mmHg 75%

    Tomorrow, 19 January, Saturday

    Time Temperature Precipitation Wind Pressure Humidity
    00:00 +26°C° 0 mm 5 mps 755 mmHg 75%
    01:00 +26°C° 0 mm 5 mps 755 mmHg 77%
    02:00 +26°C° 0 mm 5 mps 754 mmHg 79%
    03:00 +26°C° 0 mm 5 mps 754 mmHg 80%
    04:00 +25°C° 0 mm 4 mps 754 mmHg 81%
    05:00 +25°C° 0 mm 4 mps 755 mmHg 81%
    06:00 +25°C° 0 mm 4 mps 755 mmHg 81%
    07:00 +26°C° 0 mm 4 mps 755 mmHg 73%
    08:00 +28°C° 0 mm 5 mps 756 mmHg 64%
    09:00 +29°C° 0 mm 5 mps 756 mmHg 56%
    10:00 +32°C° 0 mm 5 mps 756 mmHg 53%
    11:00 +33°C° 0 mm 5 mps 755 mmHg 50%
    12:00 +34°C° 0 mm 5 mps 754 mmHg 46%
    13:00 +35°C° 0 mm 5 mps 753 mmHg 46%
    14:00 +35°C° 0 mm 5 mps 753 mmHg 46%
    15:00 +35°C° 0 mm 5 mps 752 mmHg 46%
    16:00 +33°C° 0 mm 5 mps 752 mmHg 51%
    17:00 +32°C° 0 mm 5 mps 752 mmHg 55%
    18:00 +30°C° 0 mm 5 mps 753 mmHg 60%
    19:00 +29°C° 0 mm 4 mps 753 mmHg 64%
    20:00 +28°C° 0 mm 4 mps 754 mmHg 69%
    21:00 +28°C° 0 mm 4 mps 755 mmHg 73%
    22:00 +27°C° 0 mm 3 mps 755 mmHg 76%
    23:00 +27°C° 0 mm 3 mps 755 mmHg 79%

    Day after tomorrow, 20 January, Sunday

    Time Temperature Precipitation Wind Pressure Humidity
    00:00 +26°C° 0 mm 3 mps 755 mmHg 81%
    01:00 +26°C° 0 mm 3 mps 755 mmHg 83%
    02:00 +25°C° 0 mm 3 mps 754 mmHg 84%
    03:00 +25°C° 0 mm 2 mps 754 mmHg 85%
    04:00 +25°C° 0 mm 2 mps 754 mmHg 85%
    05:00 +25°C° 0 mm 3 mps 755 mmHg 85%
    06:00 +25°C° 0 mm 3 mps 755 mmHg 86%
    07:00 +27°C° 0 mm 3 mps 756 mmHg 76%
    08:00 +29°C° 0 mm 4 mps 756 mmHg 66%
    09:00 +32°C° 0 mm 5 mps 757 mmHg 57%
    10:00 +33°C° 0 mm 6 mps 756 mmHg 50%
    11:00 +35°C° 0 mm 6 mps 756 mmHg 44%
    12:00 +36°C° 0 mm 7 mps 755 mmHg 38%
    13:00 +38°C° 0 mm 7 mps 754 mmHg 36%
    14:00 +38°C° 0 mm 7 mps 753 mmHg 34%
    15:00 +38°C° 0 mm 7 mps 753 mmHg 32%
    16:00 +35°C° 0 mm 7 mps 753 mmHg 36%
    17:00 +34°C° 0 mm 6 mps 753 mmHg 39%
    18:00 +32°C° 0 mm 5 mps 754 mmHg 43%
    19:00 +30°C° 0 mm 6 mps 755 mmHg 51%
    20:00 +30°C° 0 mm 6 mps 755 mmHg 58%
    21:00 +29°C° 0 mm 6 mps 756 mmHg 66%
    22:00 +28°C° 0 mm 7 mps 756 mmHg 66%
    23:00 +28°C° 0 mm 7 mps 756 mmHg 65%

    21 January, Monday

    Time Temperature Precipitation Wind Pressure Humidity
    00:00 +27°C° 0 mm 7 mps 756 mmHg 65%
    01:00 +27°C° 0 mm 7 mps 756 mmHg 66%
    02:00 +27°C° 0 mm 7 mps 755 mmHg 67%
    03:00 +26°C° 0 mm 7 mps 755 mmHg 68%
    04:00 +26°C° 0 mm 7 mps 755 mmHg 68%
    05:00 +26°C° 0 mm 7 mps 756 mmHg 68%
    06:00 +26°C° 0 mm 7 mps 756 mmHg 68%
    07:00 +28°C° 0 mm 8 mps 756 mmHg 62%
    08:00 +29°C° 0 mm 8 mps 757 mmHg 57%
    09:00 +31°C° 0 mm 9 mps 757 mmHg 52%
    10:00 +33°C° 0 mm 9 mps 757 mmHg 49%
    11:00 +34°C° 0 mm 8 mps 756 mmHg 45%
    12:00 +35°C° 0 mm 8 mps 755 mmHg 42%
    13:00 +35°C° 0 mm 8 mps 755 mmHg 43%
    14:00 +35°C° 0 mm 8 mps 754 mmHg 43%
    15:00 +35°C° 0 mm 8 mps 753 mmHg 44%
    16:00 +33°C° 0 mm 8 mps 754 mmHg 49%
    17:00 +32°C° 0 mm 7 mps 754 mmHg 54%
    18:00 +29°C° 0 mm 7 mps 755 mmHg 60%
    19:00 +29°C° 0 mm 7 mps 755 mmHg 63%
    20:00 +28°C° 0 mm 7 mps 756 mmHg 67%
    21:00 +27°C° 0 mm 8 mps 756 mmHg 71%
    22:00 +27°C° 0 mm 7 mps 756 mmHg 72%
    23:00 +26°C° 0 mm 7 mps 756 mmHg 72%

    22 January, Tuesday

    Time Temperature Precipitation Wind Pressure Humidity
    00:00 +26°C° 0 mm 7 mps 756 mmHg 73%
    01:00 +26°C° 0 mm 7 mps 755 mmHg 74%
    02:00 +26°C° 0 mm 7 mps 755 mmHg 75%
    03:00 +24°C° 0 mm 6 mps 754 mmHg 75%
    04:00 +24°C° 0 mm 6 mps 755 mmHg 76%
    05:00 +24°C° 0 mm 6 mps 755 mmHg 77%
    06:00 +24°C° 0 mm 6 mps 755 mmHg 78%
    07:00 +27°C° 0 mm 6 mps 756 mmHg 72%
    08:00 +28°C° 0 mm 7 mps 756 mmHg 66%
    09:00 +29°C° 0 mm 7 mps 757 mmHg 60%
    10:00 +32°C° 0 mm 7 mps 756 mmHg 56%
    11:00 +33°C° 0 mm 7 mps 755 mmHg 52%
    12:00 +34°C° 0 mm 7 mps 755 mmHg 48%
    13:00 +34°C° 0 mm 7 mps 754 mmHg 46%
    14:00 +35°C° 0 mm 7 mps 753 mmHg 45%
    15:00 +35°C° 0 mm 8 mps 753 mmHg 43%
    16:00 +34°C° 0 mm 7 mps 753 mmHg 48%
    17:00 +32°C° 0 mm 7 mps 753 mmHg 52%
    18:00 +30°C° 0 mm 6 mps 753 mmHg 57%
    19:00 +29°C° 0 mm 6 mps 754 mmHg 62%
    20:00 +28°C° 0 mm 6 mps 755 mmHg 67%
    21:00 +27°C° 0 mm 7 mps 755 mmHg 71%
    22:00 +27°C° 0 mm 6 mps 755 mmHg 72%
    23:00 +27°C° 0 mm 6 mps 755 mmHg 73%

    23 January, Wednesday

    Time Temperature Precipitation Wind Pressure Humidity
    00:00 +26°C° 0 mm 6 mps 755 mmHg 74%
    01:00 +26°C° 0 mm 6 mps 755 mmHg 74%
    02:00 +26°C° 0 mm 5 mps 754 mmHg 73%
    03:00 +26°C° 0 mm 5 mps 754 mmHg 73%
    04:00 +26°C° 0 mm 5 mps 754 mmHg 73%
    05:00 +26°C° 0 mm 5 mps 755 mmHg 74%
    06:00 +26°C° 0 mm 4 mps 755 mmHg 74%
    07:00 +27°C° 0 mm 5 mps 755 mmHg 69%
    08:00 +29°C° 0 mm 5 mps 756 mmHg 63%
    09:00 +30°C° 0 mm 6 mps 756 mmHg 58%
    10:00 +33°C° 0 mm 6 mps 756 mmHg 53%
    11:00 +34°C° 0 mm 6 mps 755 mmHg 48%
    12:00 +35°C° 0 mm 6 mps 754 mmHg 43%
    13:00 +36°C° 0 mm 6 mps 754 mmHg 42%
    14:00 +36°C° 0 mm 5 mps 753 mmHg 41%
    15:00 +36°C° 0 mm 5 mps 752 mmHg 40%
    16:00 +35°C° 0 mm 5 mps 752 mmHg 46%
    17:00 +33°C° 0 mm 5 mps 753 mmHg 53%
    18:00 +32°C° 0 mm 5 mps 753 mmHg 59%
    19:00 +30°C° 0 mm 5 mps 754 mmHg 63%
    20:00 +29°C° 0 mm 5 mps 754 mmHg 68%
    21:00 +28°C° 0 mm 5 mps 755 mmHg 73%
    22:00 +27°C° 0 mm 5 mps 755 mmHg 75%
    23:00 +27°C° 0 mm 4 mps 755 mmHg 76%
    Show more